Ross Barnett Reservoir Weather Center

Moon Phase Calendar



Ross Barnett Reservoir Water Level
Online Cameras

 


      

Current Conditions in Madison
5/6/2021 5:19:13 PM

77°F
Feels Like 76
Clear
Humidity
29%
Pressure
30.09"
Wind
6.9 mph (N)
Dew Point
42°F
UV Index
3/10 (Moderate)
Visibility
6 mi

Hourly Forecast

Date & Time Thu, May 6
5:00 PM
Thu, May 6
6:00 PM
Thu, May 6
7:00 PM
Thu, May 6
8:00 PM
Thu, May 6
9:00 PM
Thu, May 6
10:00 PM
Thu, May 6
11:00 PM
Fri, May 7
12:00 AM
Fri, May 7
1:00 AM
Fri, May 7
2:00 AM
Fri, May 7
3:00 AM
Fri, May 7
4:00 AM
Fri, May 7
5:00 AM
Fri, May 7
6:00 AM
Fri, May 7
7:00 AM
Fri, May 7
8:00 AM
Fri, May 7
9:00 AM
Fri, May 7
10:00 AM
Fri, May 7
11:00 AM
Fri, May 7
12:00 PM
Fri, May 7
1:00 PM
Fri, May 7
2:00 PM
Fri, May 7
3:00 PM
Fri, May 7
4:00 PM
Fri, May 7
5:00 PM
Fri, May 7
6:00 PM
Fri, May 7
7:00 PM
Fri, May 7
8:00 PM
Fri, May 7
9:00 PM
Fri, May 7
10:00 PM
Fri, May 7
11:00 PM
Sat, May 8
12:00 AM
Sat, May 8
1:00 AM
Sat, May 8
2:00 AM
Sat, May 8
3:00 AM
Sat, May 8
4:00 AM
Sat, May 8
5:00 AM
Sat, May 8
6:00 AM
Sat, May 8
7:00 AM
Sat, May 8
8:00 AM
Sat, May 8
9:00 AM
Sat, May 8
10:00 AM
Sat, May 8
11:00 AM
Sat, May 8
12:00 PM
Sat, May 8
1:00 PM
Sat, May 8
2:00 PM
Sat, May 8
3:00 PM
Sat, May 8
4:00 PM
Condition
Clear

Clear

Clear

Clear

Clear

Clear

Clear

Clear

Clear

Clear

Clear

Clear

Clear

Clear

Clear

Clear

Clear

Clear

Clear

Clear

Clear

Clear

Clear

Clear

Clouds

Clouds

Clouds

Clouds

Clouds

Clouds

Clouds

Clouds

Clouds

Clear

Clouds

Clouds

Clouds

Clouds

Clouds

Clouds

Clouds

Clouds

Clouds

Clouds

Clouds

Clouds

Clouds

Clouds
Temperature 77°F76°F73°F68°F65°F61°F60°F58°F56°F55°F53°F51°F50°F48°F49°F53°F57°F60°F63°F65°F67°F68°F68°F68°F68°F67°F63°F60°F58°F56°F55°F55°F54°F53°F53°F52°F52°F53°F55°F58°F63°F67°F71°F73°F75°F76°F78°F78°F
Feels Like 76°F75°F72°F68°F64°F60°F59°F57°F56°F54°F52°F51°F48°F46°F48°F52°F55°F58°F61°F64°F65°F66°F67°F67°F67°F67°F62°F59°F56°F55°F54°F53°F53°F51°F51°F51°F50°F52°F53°F57°F62°F66°F70°F73°F74°F76°F78°F78°F
Cloudiness 1%1%1%0%0%0%0%0%0%0%0%0%0%1%1%1%1%0%0%0%0%0%3%4%27%39%49%98%97%68%53%42%36%0%42%30%26%40%48%100%96%97%86%89%91%100%50%33%
Visibility 6 mi6 mi6 mi6 mi6 mi6 mi6 mi6 mi6 mi6 mi6 mi6 mi6 mi6 mi6 mi6 mi6 mi6 mi6 mi6 mi6 mi6 mi6 mi6 mi6 mi6 mi6 mi6 mi6 mi6 mi6 mi6 mi6 mi6 mi6 mi6 mi6 mi6 mi6 mi6 mi6 mi6 mi6 mi6 mi6 mi6 mi6 mi6 mi
Precipitation 0%0%0%0%0%0%0%0%0%0%0%0%0%0%0%0%0%0%0%0%0%0%0%0%0%0%0%0%0%0%0%0%0%0%0%0%0%0%0%0%0%0%0%0%0%0%0%0%
Humidity 29%37%48%58%68%78%81%87%91%93%94%95%96%96%94%78%62%54%48%45%44%45%46%46%49%61%67%64%65%67%67%67%68%71%72%75%76%73%76%74%62%56%49%46%45%45%46%52%
Dew Point 42°F48°F52°F53°F54°F54°F54°F54°F54°F53°F51°F50°F49°F47°F48°F47°F44°F43°F43°F44°F45°F46°F47°F47°F48°F53°F52°F48°F46°F46°F45°F44°F44°F44°F44°F44°F45°F45°F47°F50°F50°F51°F51°F52°F52°F54°F56°F60°F
Pressure 30.09"30.09"30.09"30.09"30.12"30.12"30.12"30.15"30.15"30.15"30.15"30.18"30.18"30.21"30.24"30.24"30.24"30.24"30.24"30.24"30.21"30.18"30.18"30.15"30.15"30.12"30.12"30.12"30.12"30.12"30.12"30.12"30.12"30.09"30.12"30.09"30.12"30.12"30.15"30.12"30.12"30.12"30.12"30.09"30.06"30.03"30"30"
Wind Speed 9.1 mph6.8 mph3.2 mph2.3 mph4 mph5.2 mph5.5 mph6.4 mph6 mph6.3 mph7.1 mph6 mph5.8 mph5.4 mph4.6 mph6.8 mph7.1 mph7 mph6.6 mph6.4 mph6.9 mph7.4 mph7 mph6 mph5 mph3.7 mph3.3 mph2.7 mph0.2 mph1.8 mph2.7 mph3.3 mph4.8 mph4.9 mph4.5 mph6.1 mph5.6 mph5.8 mph5.2 mph6.3 mph8.7 mph8.8 mph8.7 mph8.5 mph8.6 mph9.3 mph9.3 mph9.4 mph
Wind
Direction
320°
NW
313°
NW
300°
WNW
250°
WSW
228°
SW
234°
SW
279°
W
334°
NNW
353°
N

N

N

N

N
12°
NNE
17°
NNE
30°
NNE
37°
NE
27°
NNE
17°
NNE

N
342°
NNW
333°
NNW
332°
NNW
332°
NNW
317°
NW
300°
WNW
309°
NW

N
206°
SSW
65°
ENE
102°
ESE
140°
SE
151°
SSE
141°
SE
137°
SE
151°
SSE
162°
SSE
161°
SSE
184°
S
166°
SSE
186°
S
183°
S
187°
S
200°
SSW
197°
SSW
195°
SSW
189°
S
192°
SSW

Daily Forecast

Date High Low Precip. Humidity
Today
May 6

Clouds
77 °F
51 °F
0%
47%
Friday
May 7

Clear
68 °F
48 °F
0%
45%
Saturday
May 8

Clouds
78 °F
52 °F
0%
45%
Sunday
May 9

Rain
83 °F
60 °F
49%
57%
Monday
May 10

Rain
77 °F
63 °F
100%
93%
Tuesday
May 11

Rain
80 °F
65 °F
100%
78%
Wednesday
May 12

Rain
73 °F
58 °F
100%
95%
Thursday
May 13

Clouds
63 °F
50 °F
0%
68%
Friday
May 14

Clear
70 °F
45 °F
0%
48%
Saturday
May 15

Clear
78 °F
52 °F
0%
49%
Sunday
May 16

Clouds
79 °F
56 °F
0%
48%
Monday
May 17

Rain
72 °F
64 °F
100%
91%
Tuesday
May 18

Rain
78 °F
68 °F
100%
83%
Wednesday
May 19

Clouds
77 °F
59 °F
38%
63%
Thursday
May 20

Clear
69 °F
50 °F
0%
51%
Friday
May 21

Clouds
73 °F
55 °F
0%
60%

Temperature 8-14 Day Outlook



Precipitation 8-14 Day Outlook




Quick Links
Ross Barnett Reservoir News
Ross Barnett Reservoir Photos
Ross Barnett Reservoir Videos




About Us
Contact Us
Site Map
Search Site
Advertise With Us
   
RossBarnett.USLakes.info
THE ROSS BARNETT RESERVOIR WEBSITE

Copyright 2021, Lakes Online
Privacy    |    Legal